Location: Bailleul
(50.3375°N, 2.8513°E)
Time: 19:55:29
(UTC+00:00)

IRS-1A Rocket - Pass Details

Date: 19 April 2021
Orbit: 852 x 930 km, 99.2° (Epoch: 18 May)

Event Time Altitude Azimuth Distance (km) Brightness Sun altitude
Exits shadow 19:43:41 - 163° (SSE) 3,426 6.9 -8.7°
Reaches altitude 10° 19:46:01 10° 164° (SSE) 2,507 6.2 -9.0°
Maximum altitude 19:51:36 86° 253° (WSW) 889 4.4 -9.7°
Drops below altitude 10° 19:57:21 10° 344° (NNW) 2,574 7.5 -10.5°
Sets 19:59:47 0° 345° (NNW) 3,530 8.3 -10.8°
